EW3176 Weather Reports


Display with metric or nautical units.
time (UTC)temp
F
wind
direction
speed
MPH
gust
MPH
rain 1hr
in
rain 24hr
in
rain mn
in
humidity
%
barometer
mb
20260906025541 76 0.0 0.0 0.00 0.04 0.04 94 1015.2
20260906024521 76 0.0 0.0 0.00 0.04 0.04 94 1015.2
20260906023521 76 0.0 0.0 0.00 0.04 0.04 94 1015.1
20260906022521 76 0.0 0.0 0.00 0.04 0.04 94 1014.9
20260906021521 77 0.0 0.0 0.00 0.04 0.04 94 1014.8
20260906020521 77 0.0 0.0 0.00 0.04 0.04 94 1014.8
20260906015521 77 0.0 0.0 0.00 0.04 0.04 94 1014.9
20260906014520 77 0.0 0.0 0.00 0.04 0.04 95 1014.8
20260906013522 77 0.0 0.0 0.00 0.04 0.04 95 1014.9
20260906012521 77 0.0 0.0 0.00 0.04 0.04 95 1014.9
20260906011540 77 0.0 0.0 0.00 0.04 0.04 95 1014.6
20260906010521 77 0.0 0.0 0.00 0.04 0.04 95 1014.5
20260906005522 77 0.0 0.0 0.00 0.04 0.04 95 1014.3
20260906004536 77 0.0 0.0 0.00 0.04 0.04 95 1014.3
20260906004021 77 0.0 0.0 0.00 0.04 0.04 95 1014.2
20260906003020 77 0.0 0.0 0.00 0.04 0.04 95 1014.2
20260906002021 77 0.0 0.0 0.00 0.04 0.04 94 1014.0
20260906001020 77 0.0 0.0 0.00 0.04 0.04 94 1013.6
20260906000021 78 0.0 0.0 0.00 0.04 0.04 93 1013.6
20260905235021 78 0.0 0.0 0.00 0.04 0.04 93 1013.3
20260905234021 78 0.0 0.0 0.00 0.04 0.04 93 1013.2
20260905233020 79 0.0 0.0 0.00 0.04 0.04 93 1013.1
20260905232021 79 0.0 0.0 0.00 0.04 0.04 92 1012.8
20260905231023 79 0.0 0.0 0.00 0.04 0.04 92 1012.7
20260905230020 79 0.0 0.0 0.00 0.04 0.04 92 1012.7
20260905225020 79 0.0 0.0 0.00 0.04 0.04 92 1012.6
20260905224021 79 0.0 0.0 0.00 0.04 0.04 92 1012.8
20260905223020 79 0.0 0.0 0.00 0.04 0.04 92 1013.0
20260905222020 79 0.0 0.0 0.00 0.04 0.04 91 1013.1
20260905221041 79 0.0 0.0 0.00 0.04 0.04 92 1013.0
20260905220020 79 0.0 0.0 0.00 0.04 0.04 92 1013.1
20260905215020 78 0.0 0.0 0.00 0.04 0.04 91 1012.7
20260905214040 78 0.0 1.0 0.00 0.04 0.04 92 1012.6
20260905213020 78 0.0 0.0 0.00 0.04 0.04 93 1012.5
20260905212022 78 0.0 0.0 0.00 0.04 0.04 93 1012.4
20260905211021 77 0.0 0.0 0.00 0.04 0.04 93 1012.4
20260905210020 77 0.0 0.0 0.00 0.04 0.04 93 1012.5
20260905205020 77 0.0 0.0 0.01 0.04 0.04 93 1012.4
20260905204024 77 0.0 0.0 0.01 0.04 0.04 92 1012.6
20260905203102 77 0.0 0.0 0.04 0.04 0.04 92 1012.4
20260905202040 77 0.0 0.0 0.04 0.04 0.04 93 1012.3
20260905201020 77 0.0 0.0 0.04 0.04 0.04 92 1012.5
20260905200022 77 0.0 1.0 0.04 0.04 0.04 90 1013.2
20260905195041 78 0.0 0.0 0.03 0.03 0.03 89 1013.2
20260905194040 79 0.0 0.0 0.03 0.03 0.03 86 1013.2
20260905193022 81 0.0 1.0 0.00 0.00 0.00 81 1013.3
20260905192022 81 0.0 1.0 0.00 0.00 0.00 75 1013.0
20260905191022 83 68 1.0 8.0 0.00 0.00 0.00 73 1013.4
20260905190020 86 68 1.0 3.0 0.00 0.00 0.00 68 1013.7
20260905185043 93 270 1.0 9.0 0.00 0.00 0.00 60 1013.4
20260905184022 96 0.0 3.0 0.00 0.00 0.00 59 1012.3
20260905183022 98 0.0 2.0 0.00 0.00 0.00 54 1012.4
20260905182022 98 0.0 4.0 0.00 0.00 0.00 56 1012.4
20260905181022 98 0.0 2.0 0.00 0.00 0.00 56 1012.7
20260905180024 97 0.0 3.0 0.00 0.00 0.00 55 1012.9
20260905175022 97 315 1.0 3.0 0.00 0.00 0.00 53 1013.3
20260905174022 98 0.0 1.0 0.00 0.00 0.00 55 1013.5
20260905173022 98 0.0 1.0 0.00 0.00 0.00 54 1013.8
20260905172022 98 0.0 1.0 0.00 0.00 0.00 53 1014.0
20260905171022 99 0.0 2.0 0.00 0.00 0.00 55 1014.2
20260905170122 97 0.0 2.0 0.00 0.00 0.00 56 1014.3
20260905165022 99 0.0 2.0 0.00 0.00 0.00 53 1014.4
20260905164022 99 0.0 2.0 0.00 0.00 0.00 54 1014.6
20260905163022 99 0.0 1.0 0.00 0.00 0.00 55 1014.7
20260905162022 97 0.0 3.0 0.00 0.00 0.00 57 1014.8
20260905161041 97 315 1.0 3.0 0.00 0.00 0.00 58 1014.8
20260905160022 98 0.0 4.0 0.00 0.00 0.00 55 1014.9
20260905155022 97 0.0 1.0 0.00 0.00 0.00 57 1015.2
20260905154022 98 0.0 4.0 0.00 0.00 0.00 54 1015.4
20260905153022 97 0.0 2.0 0.00 0.00 0.00 58 1015.4
20260905152043 96 0.0 3.0 0.00 0.00 0.00 59 1015.5
20260905151023 95 0.0 1.0 0.00 0.00 0.00 60 1015.6
20260905150042 94 293 1.0 6.0 0.00 0.00 0.00 63 1015.6
20260905145021 94 0.0 1.0 0.00 0.00 0.00 63 1015.5
20260905144021 92 0.0 1.0 0.00 0.00 0.00 68 1015.5
20260905143022 91 0.0 1.0 0.00 0.00 0.00 69 1015.5
20260905142021 91 0.0 3.0 0.00 0.00 0.00 69 1015.5
20260905141022 90 0.0 1.0 0.00 0.00 0.00 72 1015.4
20260905140021 91 0.0 3.0 0.00 0.00 0.00 70 1015.3
20260905135022 90 0.0 2.0 0.00 0.00 0.00 72 1015.4
20260905134022 89 0.0 0.0 0.00 0.00 0.00 74 1015.4
20260905133022 87 0.0 0.0 0.00 0.00 0.00 76 1015.3
20260905132021 86 0.0 1.0 0.00 0.00 0.00 76 1015.2
20260905131041 85 0.0 1.0 0.00 0.00 0.00 78 1015.2
20260905130021 84 0.0 0.0 0.00 0.00 0.00 81 1015.3
20260905125022 82 0.0 1.0 0.00 0.00 0.00 84 1015.4
20260905124022 79 0.0 0.0 0.00 0.00 0.00 88 1015.4
20260905123021 78 0.0 0.0 0.00 0.00 0.00 91 1015.4
20260905122542 77 0.0 0.0 0.00 0.00 0.00 91 1015.5
20260905121521 77 0.0 0.0 0.00 0.00 0.00 92 1015.4
20260905120522 76 0.0 1.0 0.00 0.00 0.00 92 1015.5
20260905115523 76 0.0 0.0 0.00 0.00 0.00 92 1015.5
20260905114521 76 0.0 0.0 0.00 0.00 0.00 92 1015.5
20260905113521 75 0.0 0.0 0.00 0.00 0.00 93 1015.3
20260905112521 75 0.0 0.0 0.00 0.00 0.00 93 1015.0
20260905111521 75 0.0 0.0 0.00 0.00 0.00 93 1015.0
20260905110521 74 0.0 0.0 0.00 0.00 0.00 92 1014.9
20260905105541 75 0.0 0.0 0.00 0.00 0.00 92 1015.0
20260905104521 75 0.0 0.0 0.00 0.00 0.00 91 1014.8
20260905103521 75 0.0 0.0 0.00 0.00 0.00 91 1014.7
20260905102521 75 0.0 0.0 0.00 0.00 0.00 91 1014.8
20260905101523 75 0.0 0.0 0.00 0.00 0.00 91 1014.7
20260905100541 76 0.0 0.0 0.00 0.00 0.00 90 1014.8
20260905095521 76 0.0 0.0 0.00 0.00 0.00 90 1014.4
20260905094521 76 0.0 0.0 0.00 0.00 0.00 90 1014.5
20260905093521 76 0.0 0.0 0.00 0.00 0.00 89 1014.5
20260905092521 76 0.0 0.0 0.00 0.00 0.00 89 1014.5
20260905091541 77 0.0 0.0 0.00 0.00 0.00 88 1014.4
20260905090521 77 0.0 0.0 0.00 0.00 0.00 88 1014.6
20260905085520 77 0.0 0.0 0.00 0.00 0.00 87 1014.8
20260905084521 77 0.0 0.0 0.00 0.00 0.00 87 1014.9
20260905083541 77 0.0 0.0 0.00 0.00 0.00 87 1015.1
20260905082521 77 0.0 0.0 0.00 0.00 0.00 86 1015.1
20260905081621 77 0.0 0.0 0.00 0.00 0.00 86 1015.3
20260905080521 78 0.0 0.0 0.00 0.00 0.00 86 1015.4
20260905075521 78 0.0 0.0 0.00 0.00 0.00 85 1015.7
20260905074521 78 0.0 0.0 0.00 0.00 0.00 85 1015.7
20260905073520 78 0.0 0.0 0.00 0.00 0.00 85 1015.7
20260905072521 78 0.0 0.0 0.00 0.00 0.00 84 1015.7
20260905071521 78 0.0 0.0 0.00 0.00 0.00 84 1015.9
20260905070521 78 0.0 1.0 0.00 0.00 0.00 84 1015.9
20260905065520 79 0.0 0.0 0.00 0.00 0.00 84 1015.9
20260905064651 79 0.0 0.0 0.00 0.00 0.00 84 1016.1
20260905064041 79 0.0 0.0 0.00 0.00 0.00 83 1016.2
20260905063021 79 0.0 0.0 0.00 0.00 0.00 83 1016.4
20260905062021 79 0.0 0.0 0.00 0.00 0.00 83 1016.4
20260905061021 79 0.0 0.0 0.00 0.00 0.00 83 1016.5
20260905060022 79 0.0 0.0 0.00 0.00 0.00 83 1016.9
20260905055021 80 0.0 0.0 0.00 0.00 0.00 82 1016.9
20260905054021 80 0.0 0.0 0.00 0.00 0.00 82 1017.2
20260905053102 80 0.0 0.0 0.00 0.00 0.00 82 1017.4
20260905052042 80 0.0 0.0 0.00 0.00 0.00 81 1017.4
20260905051021 80 0.0 0.0 0.00 0.00 0.00 81 1017.6
20260905050021 80 0.0 1.0 0.00 0.00 0.00 81 1017.7
20260905045042 80 0.0 2.0 0.00 0.00 0.00 82 1017.9
20260905044021 80 0.0 1.0 0.00 0.00 0.00 83 1018.0
20260905043041 81 0.0 0.0 0.00 0.00 0.00 83 1018.0
20260905042041 81 0.0 1.0 0.00 0.00 0.00 82 1018.1
20260905041021 81 0.0 1.0 0.00 0.00 0.00 82 1018.1
20260905040104 81 0.0 0.0 0.00 0.00 0.00 82 1018.2
20260905035020 81 0.0 1.0 0.00 0.00 0.00 81 1017.9
20260905034020 81 0.0 2.0 0.00 0.00 0.00 81 1018.1
20260905033042 82 45 1.0 5.0 0.00 0.00 0.00 80 1018.2
20260905032022 82 0.0 3.0 0.00 0.00 0.00 79 1018.0
20260905031020 82 0.0 2.0 0.00 0.00 0.00 78 1017.6